NIMBUS 2 DEB, 28201

Orbit data source: Space-Track

NIMBUS 2 DEB, 28201 is space debris in SSO originally from a launch on Sun, 15 May 1966 UTC launched from the Air Force Western Test Range (AFWTR). Debris objects in space refer to the collection of defunct objects orbiting the Earth. Examples of debris include non-operational satellites, rocket bodies, and fragments generated from explosions, collisions, or faulty payload assembly.

Loading next visibility...
Identifier
28201, 1966-040P
Orbit
SSO
Country
Flag of USUS
Related business
Manufacturer
Unknown
Mission
Spacecraft
Bus & Motor
Unknown
Mass
Unknown
Launch date (UTC)
1966-05-15 (60 years ago)
Launch vehicle
Unknown
Launch site
Air Force Western Test Range (AFWTR)
Object type
Payload
Rocket body
Debris
Shape & HBR
Unknown shape, 0.1 m
Radar Cross Section
Small (<0.1 m²)

Expand to show TLE details & history
Last TLE update: 13 hours ago

TLE from 13 hours ago
0 NIMBUS 2 DEB
1 28201U 66040P   26262.60041525  .00001831  00000-0  23881-2 0  9997
2 28201 100.2594 191.4188 0058079  89.6549  86.8315 13.62609428664073
Epoch: 2026-09-19T14:24Z
TLE epoch observation values (Epoch: 2026-09-19T14:24:35.877Z)
Latitude
2.70734°
Longitude
157.25056°
Altitude
1,026.568 km
Speed
7.34 km/s
True Right ascension
00h 47m 37s
True Declination
2° 41' 30"
Sunlit
Object was in full shadow at epoch
Visualization orbit readout
Latitude
Unknown
Longitude
Unknown
Altitude
Unknown
Speed
Unknown
Apparent Right ascension
Unknown
Apparent Declination
Unknown
Sunlit
N/A
Visualization observer readout
Local Sidereal Time
20:18:25
Azimuth
Unknown
Elevation
Unknown
Doppler factor
Unknown
Orbital elements
Apogee altitude
1,066.526 km
Perigee altitude
980.55 km
Semi-major axis
7,401.675 km
Eccentricity
0.00581
Inclination
100.2594°
RAAN
191.4188°
Arg. of periapsis
89.6549°
True anomaly
87.49627°
Mean anomaly
86.8315°
Eccentric anomaly
87.16386°
Mean motion
3.40838 °/min
Orbital period
105.62 mins
BSTAR
0.0023881
Loading maneuver chart data...
Computing Atmospheric mass density...
Loading historical data...
Loading historical data...
Loading historical data...
Loading historical data...
Loading historical data...
Loading historical data...
Loading historical data...

Documentation

Showing up to 5 results
|